HYSIS

Last updated on Wed Sep 17 2025 00:02:31 GMT+0000 (Coordinated Universal Time)

1 43719U 18096A 25259.61860041 .00001074 00000+0 15372-3 0 9999 2 43719 98.0215 322.9655 0000500 107.3924 252.7341 14.78660786366994
UTC large
Height (km)
Speed (km/s)
/
Latitude / Longitude
Inclination (degrees)
Orbital Period (minutes)
Azimuth
Elevation
Range (km)
Doppler Factor

Next 0 passes for location: London (51.5072 / 0.1276)

Sorry there are no passes over London.